EW4427 Weather Reports


time (UTC)temp
C
wind
direction
speed
KPH
gust
KPH
rain 1hr
cm
rain 24hr
cm
rain mn
cm
humidity
%
barometer
mb
20260906191605 25 0 0.0 1.6 0.03 0.03 0.03 64 1020.1
20260906191047 25 0 0.0 1.6 0.03 0.03 0.03 64 1020.1
20260906190543 25 0 0.0 1.6 0.03 0.03 0.03 67 1020.1
20260906190104 25 0 0.0 1.6 0.03 0.03 0.03 69 1020.0
20260906185542 25 0 0.0 1.6 0.03 0.03 0.03 68 1020.1
20260906185043 24 0 0.0 1.6 0.00 0.00 0.00 68 1020.1
20260906184600 24 0 0.0 1.6 0.00 0.00 0.00 68 1020.3
20260906184043 24 117 0.0 1.6 0.00 0.00 0.00 71 1020.2
20260906183543 23 0 0.0 1.6 0.00 0.00 0.00 69 1020.3
20260906183104 23 0 0.0 8.0 0.00 0.00 0.00 70 1020.2
20260906182544 23 0 0.0 8.0 0.00 0.00 0.00 69 1020.2
20260906182047 23 0 0.0 3.2 0.00 0.00 0.00 70 1020.4
20260906181634 23 0 0.0 3.2 0.00 0.00 0.00 71 1020.2
20260906181044 23 0 0.0 3.2 0.00 0.00 0.00 69 1020.2
20260906180543 23 0 0.0 1.6 0.00 0.00 0.00 70 1020.2
20260906175543 23 0 0.0 1.6 0.00 0.00 0.00 74 1020.2
20260906175043 23 0 0.0 1.6 0.00 0.00 0.00 73 1020.2
20260906174559 23 0 0.0 1.6 0.00 0.00 0.00 73 1020.3
20260906174046 23 0 0.0 9.7 0.00 0.00 0.00 74 1020.2
20260906173544 23 0 1.6 9.7 0.00 0.00 0.00 75 1020.4
20260906173057 23 0 0.0 0.0 0.00 0.00 0.00 74 1020.4
20260906172544 23 0 0.0 1.6 0.00 0.00 0.00 75 1020.4
20260906172047 23 0 0.0 1.6 0.00 0.00 0.00 74 1020.5
20260906171610 23 0 0.0 1.6 0.00 0.00 0.00 74 1020.5
20260906171042 23 0 0.0 1.6 0.00 0.00 0.00 75 1020.5
20260906170543 23 0 0.0 0.0 0.00 0.00 0.00 76 1020.5
20260906170108 23 0 0.0 6.4 0.00 0.00 0.00 76 1020.5
20260906165547 23 0 0.0 6.4 0.00 0.00 0.00 74 1020.6
20260906165043 23 0 0.0 0.0 0.00 0.00 0.00 75 1020.6
20260906164602 23 0 0.0 0.0 0.00 0.00 0.00 76 1020.8
20260906164044 23 0 0.0 0.0 0.00 0.00 0.00 78 1020.9
20260906163543 23 0 0.0 0.0 0.00 0.00 0.00 77 1020.9
20260906163107 22 0 0.0 0.0 0.00 0.00 0.00 78 1021.0
20260906162543 22 0 0.0 0.0 0.00 0.00 0.00 78 1020.8
20260906162043 22 0 0.0 0.0 0.00 0.00 0.00 79 1020.8
20260906161601 22 0 0.0 0.0 0.00 0.00 0.00 79 1020.6
20260906161044 22 0 0.0 0.0 0.00 0.00 0.00 79 1020.5
20260906160543 22 0 0.0 0.0 0.00 0.00 0.00 80 1020.5
20260906160110 22 0 0.0 0.0 0.00 0.00 0.00 81 1020.4
20260906155543 22 0 0.0 0.0 0.00 0.00 0.00 82 1020.4
20260906155043 22 0 0.0 0.0 0.00 0.00 0.00 82 1020.3
20260906154557 22 0 0.0 0.0 0.00 0.00 0.00 82 1020.3
20260906154043 22 0 0.0 0.0 0.00 0.00 0.00 83 1020.3
20260906153543 21 0 0.0 0.0 0.00 0.00 0.00 83 1020.4
20260906153102 21 0 0.0 0.0 0.00 0.00 0.00 84 1020.4
20260906152545 21 0 0.0 0.0 0.00 0.00 0.00 84 1020.4
20260906152047 21 0 0.0 0.0 0.00 0.00 0.00 84 1020.4
20260906151605 21 0 0.0 0.0 0.00 0.00 0.00 85 1020.3
20260906151043 21 0 0.0 0.0 0.00 0.00 0.00 86 1020.3
20260906150546 21 0 0.0 0.0 0.00 0.00 0.00 86 1020.2
20260906150105 21 0 0.0 0.0 0.00 0.00 0.00 88 1020.3
20260906145543 21 0 0.0 0.0 0.00 0.00 0.00 88 1020.3
20260906145047 20 0 0.0 0.0 0.00 0.00 0.00 90 1020.3
20260906144614 20 0 0.0 0.0 0.00 0.00 0.00 91 1020.3
20260906144043 20 0 0.0 0.0 0.00 0.00 0.00 92 1020.2
20260906143543 20 0 0.0 0.0 0.00 0.00 0.00 93 1020.2
20260906143111 20 0 0.0 0.0 0.00 0.00 0.00 93 1020.2
20260906142543 20 0 0.0 0.0 0.00 0.00 0.00 93 1020.1
20260906142043 20 0 0.0 0.0 0.00 0.00 0.00 94 1020.2
20260906141558 20 0 0.0 0.0 0.00 0.00 0.00 94 1020.2
20260906141047 20 0 0.0 0.0 0.00 0.00 0.00 94 1020.3
20260906140547 20 0 0.0 0.0 0.00 0.00 0.00 95 1020.2
20260906140055 20 0 0.0 0.0 0.00 0.00 0.00 95 1020.2
20260906135544 19 0 0.0 0.0 0.00 0.00 0.00 95 1020.3
20260906135043 19 0 0.0 0.0 0.00 0.00 0.00 96 1020.3
20260906134558 19 0 0.0 0.0 0.00 0.00 0.00 95 1020.2
20260906134044 19 0 0.0 0.0 0.00 0.00 0.00 96 1020.2
20260906133548 19 0 0.0 0.0 0.00 0.00 0.00 96 1020.2
20260906133112 19 0 0.0 0.0 0.00 0.00 0.00 96 1020.3
20260906132547 18 0 0.0 0.0 0.00 0.00 0.00 96 1020.2
20260906132043 18 0 0.0 0.0 0.00 0.00 0.00 96 1020.1
20260906131559 18 0 0.0 0.0 0.00 0.00 0.00 96 1020.1
20260906131046 18 0 0.0 0.0 0.00 0.00 0.00 96 1019.8
20260906130547 18 0 0.0 0.0 0.00 0.00 0.00 96 1019.8
20260906130107 18 0 0.0 0.0 0.00 0.00 0.00 96 1019.7
20260906125544 18 0 0.0 0.0 0.00 0.00 0.00 96 1019.8
20260906125042 18 0 0.0 0.0 0.00 0.00 0.00 96 1019.6
20260906124608 18 0 0.0 0.0 0.00 0.00 0.00 96 1019.6
20260906124043 18 0 0.0 0.0 0.00 0.00 0.00 95 1019.7
20260906123546 18 0 0.0 0.0 0.00 0.00 0.00 95 1019.5
20260906123059 18 0 0.0 0.0 0.00 0.00 0.00 95 1019.6
20260906122543 18 0 0.0 0.0 0.00 0.00 0.00 95 1019.5
20260906122043 17 0 0.0 0.0 0.00 0.00 0.00 95 1019.5
20260906121556 17 0 0.0 0.0 0.00 0.00 0.00 95 1019.6
20260906121047 17 0 0.0 0.0 0.00 0.00 0.00 95 1019.4
20260906120545 17 0 0.0 0.0 0.00 0.00 0.00 95 1019.2
20260906120107 17 0 0.0 0.0 0.00 0.00 0.00 95 1019.2
20260906115548 17 0 0.0 0.0 0.00 0.00 0.00 95 1019.1
20260906115045 17 0 0.0 0.0 0.00 0.00 0.00 95 1019.0
20260906114601 17 0 0.0 0.0 0.00 0.00 0.00 95 1019.0
20260906114043 17 0 0.0 0.0 0.00 0.00 0.00 95 1018.9
20260906113546 17 0 0.0 0.0 0.00 0.00 0.00 95 1019.0
20260906113058 17 0 0.0 0.0 0.00 0.00 0.00 95 1018.9
20260906112543 17 0 0.0 0.0 0.00 0.00 0.00 95 1019.0
20260906112043 17 0 0.0 0.0 0.00 0.00 0.00 95 1018.8
20260906111555 17 0 0.0 0.0 0.00 0.00 0.00 95 1018.9
20260906111043 17 0 0.0 0.0 0.00 0.00 0.00 94 1018.8
20260906110543 17 0 0.0 0.0 0.00 0.00 0.00 94 1018.8
20260906110059 17 0 0.0 0.0 0.00 0.00 0.00 94 1018.7
20260906105543 17 0 0.0 0.0 0.00 0.00 0.00 94 1018.7
20260906105042 17 0 0.0 0.0 0.00 0.00 0.00 94 1018.7
20260906104606 17 0 0.0 0.0 0.00 0.00 0.00 94 1018.7
20260906104047 17 0 0.0 0.0 0.00 0.00 0.00 94 1018.6
20260906103544 17 0 0.0 0.0 0.00 0.00 0.00 94 1018.7
20260906103059 17 0 0.0 0.0 0.00 0.00 0.00 94 1018.7
20260906102543 17 0 0.0 0.0 0.00 0.00 0.00 94 1018.7
20260906102043 17 0 0.0 0.0 0.00 0.00 0.00 94 1018.8
20260906101557 17 0 0.0 0.0 0.00 0.00 0.00 94 1018.7
20260906101044 17 0 0.0 0.0 0.00 0.00 0.00 94 1018.6
20260906100546 17 0 0.0 0.0 0.00 0.00 0.00 94 1018.5
20260906100056 17 0 0.0 0.0 0.00 0.00 0.00 94 1018.7
20260906095551 17 0 0.0 0.0 0.00 0.00 0.00 94 1018.7
20260906095043 17 0 0.0 0.0 0.00 0.00 0.00 94 1018.5
20260906094615 17 0 0.0 0.0 0.00 0.00 0.00 94 1018.3
20260906094043 17 0 0.0 0.0 0.00 0.00 0.00 94 1018.3
20260906093548 17 0 0.0 0.0 0.00 0.00 0.00 94 1018.2
20260906093131 17 0 0.0 0.0 0.00 0.00 0.00 94 1018.2
20260906092546 17 0 0.0 0.0 0.00 0.00 0.00 93 1018.3
20260906092043 17 0 0.0 0.0 0.00 0.00 0.00 93 1018.2
20260906091606 17 0 0.0 0.0 0.00 0.00 0.00 93 1018.2
20260906091043 17 0 0.0 0.0 0.00 0.00 0.00 93 1018.3
20260906090543 17 0 0.0 0.0 0.00 0.00 0.00 93 1018.2
20260906090103 17 0 0.0 0.0 0.00 0.00 0.00 93 1018.3
20260906085547 17 0 0.0 0.0 0.00 0.00 0.00 93 1018.3
20260906085046 17 0 0.0 0.0 0.00 0.00 0.00 93 1018.4
20260906084600 17 0 0.0 0.0 0.00 0.00 0.00 93 1018.4
20260906084043 17 0 0.0 0.0 0.00 0.00 0.00 94 1018.4
20260906083543 17 0 0.0 0.0 0.00 0.00 0.00 94 1018.2
20260906083057 17 0 0.0 0.0 0.00 0.00 0.00 94 1018.1
20260906082543 17 0 0.0 0.0 0.00 0.00 0.00 94 1018.0
20260906082043 17 0 0.0 0.0 0.00 0.00 0.00 94 1018.1
20260906081555 18 0 0.0 0.0 0.00 0.00 0.00 94 1018.1
20260906081044 17 0 0.0 0.0 0.00 0.00 0.00 94 1018.3
20260906080546 17 0 0.0 0.0 0.00 0.00 0.00 94 1018.2
20260906080105 17 0 0.0 0.0 0.00 0.00 0.00 93 1018.2
20260906075543 17 0 0.0 0.0 0.00 0.00 0.00 93 1018.2
20260906075044 17 0 0.0 0.0 0.00 0.00 0.00 93 1018.3
20260906074559 17 0 0.0 0.0 0.00 0.00 0.00 92 1018.2
20260906074043 17 0 0.0 0.0 0.00 0.00 0.00 92 1018.2
20260906073543 17 0 0.0 0.0 0.00 0.00 0.00 92 1018.2
20260906073100 17 0 0.0 0.0 0.00 0.00 0.00 92 1018.2
20260906072546 17 0 0.0 0.0 0.00 0.00 0.00 92 1018.0
20260906072043 17 0 0.0 0.0 0.00 0.00 0.00 92 1018.0
20260906071557 17 0 0.0 0.0 0.00 0.00 0.00 92 1018.0
20260906071043 17 0 0.0 0.0 0.00 0.00 0.00 92 1018.1
20260906070544 17 0 0.0 0.0 0.00 0.00 0.00 92 1018.0
20260906070057 17 0 0.0 0.0 0.00 0.00 0.00 92 1018.0
20260906065547 17 0 0.0 0.0 0.00 0.00 0.00 92 1018.1
20260906065047 17 0 0.0 0.0 0.00 0.00 0.00 92 1018.0
20260906064601 17 0 0.0 0.0 0.00 0.00 0.00 92 1018.1
20260906064046 17 0 0.0 0.0 0.00 0.00 0.00 92 1018.1
20260906063546 17 0 0.0 0.0 0.00 0.00 0.00 92 1018.2
20260906063100 18 0 0.0 0.0 0.00 0.00 0.00 92 1018.3
20260906062547 18 0 0.0 0.0 0.00 0.00 0.00 92 1018.2
20260906062046 18 0 0.0 0.0 0.00 0.00 0.00 92 1018.2
20260906061559 18 0 0.0 0.0 0.00 0.00 0.00 92 1018.2
20260906061044 18 0 0.0 0.0 0.00 0.00 0.00 92 1018.2
20260906060546 18 0 0.0 0.0 0.00 0.00 0.00 92 1018.2
20260906060058 18 0 0.0 0.0 0.00 0.00 0.00 92 1018.2
20260906055546 18 0 0.0 0.0 0.00 0.00 0.00 92 1018.2
20260906055046 18 0 0.0 0.0 0.00 0.00 0.00 92 1018.1
20260906054610 18 0 0.0 0.0 0.00 0.00 0.00 92 1018.0
20260906054046 18 0 0.0 0.0 0.00 0.00 0.00 92 1018.0
20260906053548 18 0 0.0 0.0 0.00 0.00 0.00 92 1018.1
20260906053100 18 0 0.0 0.0 0.00 0.00 0.00 92 1017.9
20260906052545 18 0 0.0 0.0 0.00 0.00 0.00 91 1017.9
20260906052049 18 0 0.0 0.0 0.00 0.00 0.00 91 1017.9
20260906051624 18 0 0.0 0.0 0.00 0.00 0.00 91 1017.9
20260906051046 18 0 0.0 0.0 0.00 0.00 0.00 91 1017.9
20260906050546 18 0 0.0 0.0 0.00 0.00 0.00 91 1017.9
20260906050108 18 0 0.0 0.0 0.00 0.00 0.00 91 1017.8
20260906045548 18 0 0.0 0.0 0.00 0.00 0.00 91 1017.8
20260906045045 18 0 0.0 0.0 0.00 0.00 0.00 91 1017.8
20260906044606 18 0 0.0 0.0 0.00 0.00 0.00 91 1017.7
20260906044046 18 0 0.0 0.0 0.00 0.00 0.00 91 1017.6
20260906043545 18 0 0.0 0.0 0.00 0.00 0.00 91 1017.5
20260906043055 18 0 0.0 0.0 0.00 0.00 0.00 91 1017.5
20260906042547 18 0 0.0 0.0 0.00 0.00 0.00 91 1017.4
20260906042047 18 0 0.0 0.0 0.00 0.00 0.00 91 1017.5
20260906041557 18 0 0.0 0.0 0.00 0.00 0.00 90 1017.4
20260906041047 19 0 0.0 0.0 0.00 0.00 0.00 90 1017.3
20260906040546 19 0 0.0 0.0 0.00 0.00 0.00 91 1017.3
20260906040107 19 0 0.0 0.0 0.00 0.00 0.00 91 1017.2
20260906035545 19 0 0.0 0.0 0.00 0.00 0.00 91 1017.2
20260906035046 19 0 0.0 0.0 0.00 0.00 0.00 90 1017.2
20260906034605 19 0 0.0 0.0 0.00 0.00 0.00 90 1017.2
20260906034046 19 0 0.0 0.0 0.00 0.00 0.00 90 1017.3
20260906033543 19 0 0.0 0.0 0.00 0.00 0.00 90 1017.3
20260906033059 19 0 0.0 0.0 0.00 0.00 0.00 90 1017.3
20260906032547 19 0 0.0 0.0 0.00 0.00 0.00 89 1017.2
20260906032046 19 0 0.0 0.0 0.00 0.00 0.00 89 1017.3
20260906031556 19 0 0.0 0.0 0.00 0.00 0.00 89 1017.3
20260906031045 19 0 0.0 0.0 0.00 0.00 0.00 89 1017.2
20260906030546 19 0 0.0 0.0 0.00 0.00 0.00 89 1017.2
20260906025545 19 0 0.0 0.0 0.00 0.00 0.00 89 1017.2
20260906025044 20 0 0.0 0.0 0.00 0.00 0.00 89 1017.3
20260906024601 20 0 0.0 0.0 0.00 0.00 0.00 88 1017.3
20260906024045 20 0 0.0 0.0 0.00 0.00 0.00 89 1017.1
20260906023545 20 0 0.0 0.0 0.00 0.00 0.00 89 1017.1
20260906023058 20 0 0.0 0.0 0.00 0.00 0.00 89 1017.0
20260906022548 20 0 0.0 0.0 0.00 0.00 0.00 89 1016.8
20260906022046 20 0 0.0 0.0 0.00 0.00 0.00 88 1016.8
20260906021602 20 0 0.0 0.0 0.00 0.00 0.00 88 1016.8
20260906021043 20 0 0.0 0.0 0.00 0.00 0.00 88 1016.7
20260906020545 20 0 0.0 0.0 0.00 0.00 0.00 88 1016.8
20260906020059 20 0 0.0 0.0 0.00 0.00 0.00 88 1016.8
20260906015543 20 0 0.0 0.0 0.00 0.00 0.00 88 1016.9
20260906015043 20 0 0.0 0.0 0.00 0.00 0.00 88 1016.9
20260906014638 20 0 0.0 0.0 0.00 0.00 0.00 88 1017.1
20260906014043 20 0 0.0 0.0 0.00 0.00 0.00 88 1017.1
20260906013544 20 0 0.0 0.0 0.00 0.00 0.00 88 1017.1
20260906013102 20 0 0.0 0.0 0.00 0.00 0.00 88 1017.0
20260906012544 21 0 0.0 0.0 0.00 0.00 0.00 88 1017.0
20260906012044 21 0 0.0 0.0 0.00 0.00 0.00 88 1017.0
20260906011604 21 0 0.0 1.6 0.00 0.00 0.00 88 1017.1
20260906011044 21 0 0.0 1.6 0.00 0.00 0.00 88 1017.1
20260906010543 21 0 0.0 4.8 0.00 0.00 0.00 88 1017.1
20260906010101 21 0 0.0 4.8 0.00 0.00 0.00 88 1017.0
20260906005543 21 0 0.0 8.0 0.00 0.00 0.00 88 1017.2
20260906005043 21 20 3.2 8.0 0.00 0.00 0.00 88 1017.2
20260906004613 21 311 1.6 6.4 0.00 0.00 0.00 87 1017.1
20260906004046 21 352 1.6 9.7 0.00 0.00 0.00 87 1017.1
20260906003544 21 11 1.6 9.7 0.00 0.00 0.00 87 1017.1
20260906003114 21 31 1.6 9.7 0.00 0.00 0.00 87 1017.1
20260906002543 21 338 3.2 8.0 0.00 0.00 0.00 87 1016.9
20260906002044 21 5 3.2 8.0 0.00 0.00 0.00 87 1017.0
20260906001557 21 348 0.0 6.4 0.00 0.00 0.00 87 1017.0
20260906001044 21 15 1.6 6.4 0.00 0.00 0.00 87 1017.0
20260906000547 21 30 1.6 6.4 0.00 0.00 0.00 87 1016.8
20260906000100 21 24 1.6 11.3 0.00 0.00 0.00 87 1017.0
20260905235544 21 0 1.6 11.3 0.00 0.00 0.00 86 1017.0
20260905235044 22 35 1.6 19.3 0.00 0.00 0.00 86 1017.0
20260905234611 22 36 3.2 19.3 0.00 0.00 0.00 86 1017.1
20260905234044 22 10 4.8 19.3 0.00 0.00 0.00 86 1017.1
20260905233544 22 0 1.6 9.7 0.00 0.00 0.00 85 1017.1
20260905233059 22 26 3.2 9.7 0.00 0.00 0.00 85 1017.1
20260905232543 22 19 1.6 11.3 0.00 0.00 0.00 85 1017.0
20260905232046 22 340 4.8 11.3 0.00 0.00 0.00 84 1017.0
20260905231557 22 17 1.6 8.0 0.00 0.00 0.00 85 1017.1
20260905231047 22 0 0.0 12.9 0.00 0.00 0.00 85 1016.9
20260905230547 22 296 1.6 12.9 0.00 0.00 0.00 84 1016.8
20260905230110 22 34 3.2 12.9 0.00 0.00 0.00 84 1016.9
20260905225544 22 0 4.8 12.9 0.00 0.00 0.00 83 1016.8
20260905225044 22 30 3.2 11.3 0.00 0.00 0.00 83 1016.8
20260905224610 23 19 3.2 9.7 0.00 0.00 0.00 83 1016.7
20260905224044 23 350 1.6 14.5 0.00 0.00 0.00 83 1016.8
20260905223541 23 5 4.8 14.5 0.00 0.00 0.00 82 1016.8
20260905223058 23 50 1.6 9.7 0.00 0.00 0.00 83 1016.8
20260905222544 23 0 3.2 11.3 0.00 0.00 0.00 82 1016.9
20260905222045 23 0 1.6 11.3 0.00 0.00 0.00 82 1016.8
20260905221616 23 355 3.2 14.5 0.00 0.00 0.00 82 1016.7
20260905221044 23 23 1.6 14.5 0.00 0.00 0.00 82 1016.6
20260905220544 23 5 4.8 14.5 0.00 0.00 0.00 81 1016.5
20260905220100 24 41 4.8 12.9 0.00 0.00 0.00 81 1016.5
20260905215544 24 66 4.8 16.1 0.00 0.00 0.00 81 1016.3
20260905215045 24 350 6.4 16.1 0.00 0.00 0.00 80 1016.1
20260905214601 25 5 4.8 16.1 0.00 0.00 0.00 80 1016.2
20260905214043 25 27 4.8 12.9 0.00 0.00 0.00 79 1016.1
20260905213544 25 24 4.8 12.9 0.00 0.00 0.00 79 1015.9
20260905213103 25 26 3.2 12.9 0.00 0.00 0.00 79 1015.9
20260905212543 25 53 4.8 14.5 0.00 0.00 0.00 79 1015.8
20260905212045 25 19 4.8 20.9 0.00 0.00 0.00 79 1015.7
20260905211602 25 44 3.2 20.9 0.00 0.00 0.00 78 1015.8
20260905211043 25 52 6.4 20.9 0.00 0.00 0.00 78 1015.8
20260905210542 25 26 3.2 17.7 0.00 0.00 0.00 78 1015.8
20260905210059 25 299 6.4 17.7 0.00 0.00 0.00 78 1015.7
20260905205544 25 19 4.8 16.1 0.00 0.00 0.00 78 1015.7
20260905205044 25 30 4.8 16.1 0.00 0.00 0.00 78 1015.7
20260905204555 25 360 8.0 16.1 0.00 0.00 0.00 77 1015.8
20260905204044 25 30 4.8 17.7 0.00 0.00 0.00 78 1015.7
20260905203542 25 42 4.8 17.7 0.00 0.00 0.00 78 1015.9
20260905203105 25 5 4.8 16.1 0.00 0.00 0.00 79 1015.9
20260905202542 26 33 4.8 17.7 0.00 0.00 0.00 79 1015.8
20260905202042 26 16 6.4 17.7 0.00 0.00 0.00 79 1015.8
20260905201615 26 92 4.8 17.7 0.00 0.00 0.00 79 1015.9
20260905201044 26 49 8.0 16.1 0.00 0.00 0.00 79 1015.9
20260905200544 26 25 3.2 19.3 0.00 0.00 0.00 78 1015.8
20260905195544 26 236 3.2 14.5 0.00 0.00 0.00 78 1015.9
20260905195044 26 321 4.8 14.5 0.00 0.00 0.00 77 1015.9
20260905194557 26 26 3.2 12.9 0.00 0.00 0.00 78 1015.7
20260905194047 26 12 3.2 9.7 0.00 0.00 0.00 78 1015.7
20260905193541 26 277 1.6 9.7 0.00 0.00 0.00 79 1015.8
20260905193114 26 30 3.2 9.7 0.00 0.00 0.00 79 1015.9
20260905192546 26 0 1.6 14.5 0.00 0.00 0.00 78 1015.9
20260905192045 26 14 3.2 14.5 0.00 0.00 0.00 78 1015.8